Regional Weather Roundup
Issued by NWS

Home | Current Version | Previous Version | Text Only | Print | Product List | Glossary Off
Versions: 1 2 3 4 5 6 7 8 9 10 11 12 13 14 15 16 17 18 19 20 21 22 23 24 25 26 27 28 29 30 31 32 33 34 35 36 37 38 39 40 41 42 43 44 45 46 47 48 49 50

000
ASUS43 KLOT 220810
RWRIL

ILLINOIS REGIONAL WEATHER ROUNDUP
NATIONAL WEATHER SERVICE CHICAGO/ROMEOVILLE IL
300 AM CDT MON SEP 22 2014

NOTE: "FAIR" INDICATES FEW OR NO CLOUDS BELOW 12,000 FEET WITH NO
SIGNIFICANT WEATHER AND/OR OBSTRUCTIONS TO VISIBILITY.

* THESE STATIONS ARE NOT UNDER NWS QUALITY CONTROL. THEY ALSO MAY NOT
  REPORT WEATHER SUCH AS PRECIPITATION OR FOG.

ILZ001-002-007-009-015-016-024-220900-
NORTHWEST ILLINOIS

CITY           SKY/WX    TMP DP  RH WIND       PRES   REMARKS
MOLINE         CLEAR     48  44  86 CALM      30.22R
STERLING*      CLEAR     48  43  81 NE5       30.21R
SAVANNA*       CLEAR     47  43  85 N6        30.21S
$$

ILZ003-004-008-010-011-017-018-220900-
NORTH CENTRAL ILLINOIS

CITY           SKY/WX    TMP DP  RH WIND       PRES   REMARKS
ROCKFORD       CLEAR     47  42  83 NE3       30.22S
FREEPORT*      CLEAR     44  42  93 NW3       30.23S
ROCHELLE*      CLEAR     42  40  93 N3        30.21R
DE KALB*       CLEAR     43  41  92 N6        30.21R
PERU*          CLEAR     48  45  88 N8        30.20R
$$

ILZ005-006-012>014-019>023-220900-
NORTHEAST ILLINOIS

CITY           SKY/WX    TMP DP  RH WIND       PRES   REMARKS
CHICAGO-OHARE  PTCLDY    49  42  77 N8        30.18R
CHICAGO-MIDWAY PTCLDY    51  45  79 NW7       30.17R
AURORA         CLEAR     44  40  85 NW5       30.20R
LANSING*       MOCLDY    54  44  68 NE10G18   30.16S
JOLIET*        CLEAR     47  43  84 CALM      30.19S
WAUKEGAN       PTCLDY    44  40  85 NW5       30.18R
DUPAGE AIRPORT CLEAR     44  41  89 N6        30.18R
KANKAKEE*      CLEAR     49  44  84 NW5       30.18R
WHEELING       CLEAR     47  42  83 NW5       30.19R
MORRIS*        CLEAR     47  45  93 CALM      30.18S
ROMEOVILLE*    CLEAR     47  44  90 N3        30.18S
NORTHERLY ISL    N/A     55  44  66 N12         N/A
$$

LMZ740>746-220900-
SOUTHERN LAKE MICHIGAN

STATION/POSITION SKY/WX   TEMP    WIND        PRES    VSBY  WAVE
                          AIR SEA DIR/SP/G                  HT/PER
                          (F)     (DEG/KT/KT) (MB)    (MI)  (FT/S)
SOUTHERN BUOY              53 61  340/ 17/ 21 1021.3R         8/ 8
WAUKEGAN HARBOR            48     320/  8/ 10   N/A
HARRISON CRIB              55      10/ 18/ 22   N/A
BURNHAM HARBOR             54     350/ 13/ 15   N/A
CALUMET HARBOR             55      10/ 10/ 15 1020.2F
MICHIGAN CITY              54     360/ 21/ 28   N/A
MICHIGAN CITY 6N           56 64  360/ 16/ 21   N/A           8/ 7
ST. JOSEPH                 55 65   10/ 17/ 25   N/A           7/ 7
$$

ILZ025>027-034>036-040-047-049-050-058-095>099-220900-
WEST-CENTRAL ILLINOIS

CITY           SKY/WX    TMP DP  RH WIND       PRES   REMARKS
QUINCY         CLEAR     51  48  89 CALM      30.20F
GALESBURG*     CLEAR     44  43  96 CALM      30.21R
MACOMB*        CLEAR     47  46  96 N6        30.22S
JACKSONVILLE*  CLEAR     51  49  93 NW5       30.20S
PITTSFIELD*    CLEAR     53  48  84 NW3       30.21S
$$

ILZ028>032-037-038-041>044-048-051>054-059>061-220900-
CENTRAL ILLINOIS

CITY           SKY/WX    TMP DP  RH WIND       PRES   REMARKS
PONTIAC        CLEAR     45  45 100 N3        30.19R
DECATUR        CLEAR     50  48  93 N6        30.18R
PEORIA         CLEAR     52  47  83 CALM      30.19S
LACON*         CLEAR     48  46  92 CALM      30.19R
LINCOLN*       CLEAR     51  50  94 NW3       30.17S
SPRINGFIELD    CLEAR     52  49  89 N6        30.18S
TAYLORVILLE    CLEAR     48  48 100 CALM      30.18S
$$

ILZ033-039-045-046-055>057-062-063-220900-
EAST-CENTRAL ILLINOIS

CITY           SKY/WX    TMP DP  RH WIND       PRES   REMARKS
CHAMPAIGN      CLEAR     47  46  97 NW7       30.18R
DANVILLE*      CLEAR     47  46  97 NW5       30.13S
RANTOUL*       CLEAR     49  46  90 W3        30.18R
MATTOON        CLEAR     49  46  90 NW5       30.16R
PARIS*         CLEAR     49  49  99 CALM      30.16S
$$

ILZ079-100>102-220900-
SOUTHWEST ILLINOIS

CITY           SKY/WX    TMP DP  RH WIND       PRES   REMARKS
ALTON          CLEAR     55  50  84 NW6       30.19R
BELLEVILLE     CLEAR     54  51  87 W5        30.17S
CAHOKIA*       CLEAR     53  50  89 N5        30.18S
SPARTA*        CLEAR     53  50  90 CALM      30.18S
$$

ILZ064>066-069>071-074>076-080>082-084>086-088>090-092>094-220900-
SOUTH-CENTRAL ILLINOIS

CITY           SKY/WX    TMP DP  RH WIND       PRES   REMARKS
CARBONDALE     CLEAR     51  49  92 CALM      30.16S
CAIRO*         CLEAR     56  51  81 CALM      30.15S
EFFINGHAM*     CLEAR     52  48  87 N3        30.16S
MARION         CLEAR     57  52  82 NW3       30.16S
MT. VERNON     CLEAR     55  48  76 N3        30.16S
CENTRALIA*     CLEAR     51  48  90 N5        30.16S
SALEM*         CLEAR     52  51  95 N5        30.16S
METROPOLIS*    CLEAR     53  52  99 CALM      30.14S
$$

ILZ067-068-072-073-078-083-087-091-220900-
SOUTHEAST ILLINOIS

CITY           SKY/WX    TMP DP  RH WIND       PRES   REMARKS
LAWRENCEVILLE  CLEAR     54  51  90 N8        30.14R
FLORA*         CLEAR     53  50  90 N5        30.16S
FAIRFIELD*     CLEAR    N/A N/A N/A N5        30.15R
HARRISBURG*    CLEAR     52  51  95 CALM      30.16R
ROBINSON*      CLEAR     52  50  95 NW3       30.15S
CARMI*         CLEAR     54  53  94 N3        30.13S
$$

ABBREVIATIONS USED IN REMARKS
   TC - TEMPERATURE IN CELSIUS
  WCI - WIND CHILL INDEX
   HX - HEAT INDEX
  VSB - VISIBILITY
$$



USA.gov is the U.S. government's official web portal to all federal, state and local government web resources and services.